Tracking 30696 objects as of 16-Jun-2025
HD Live streaming from Space Station
objects crossing your sky now

STARLINK-30253

Track STARLINK-30253 now!
10-day predictions
STARLINK-30253 is classified as:


NORAD ID: 57525
Int'l Code: 2023-115E
Perigee: 565.6 km
Apogee: 566.8 km
Inclination: 43.0 °
Period: 95.8 minutes
Semi major axis: 6937 km
RCS: Unknown
Launch date: August 8, 2023
Source: United States (US)
Launch site: AIR FORCE WESTERN TEST RANGE (AFWTR)
Your satellite tracking list
Your tracking list is empty




NASA's NSSDC Master Catalog

Two Line Element Set (TLE):
1 57525U 23115E   25166.84585758 -.00001372  00000-0 -86576-4 0  9997
2 57525  43.0037  14.7285 0000868 269.6225  90.4517 15.02527229102176
Source of the keplerian elements: AFSPC